Home > Weather > Lowell > Past weeks

Flag for USA Past Weather in Lowell, Massachusetts, USA — Yesterday and Last 2 Weeks

Now
66 °F

Clear.


Feels Like: 66 °F
Forecast: 65 / 87 °F
Wind: No wind

Location: Hanscom Field

Current Time: Jul 30, 2016 at 3:24:56 AM

Latest Report: Jul 30, 2016 at 2:56 AM


Visibility: 8 mi

Pressure: 29.96 "Hg

Humidity: 87%

Dew Point: 62 °F

Location of LowellLocation

Past Weather in Lowell — Graph

°F

Lowell Temperature Yesterday

Maximum temperature yesterday: 86 °F (at 2:56 PM)
Minimum temperature yesterday: 68 °F (at 11:56 PM)
Average temperature yesterday: 76 °F

High & Low Weather Summary for the Past Weeks

 TemperatureHumidityPressure
High96 °F (Jul 22, 3:56 PM)93% (Jul 15, 2:56 AM)30.23 "Hg (Jul 15, 2:56 AM)
Low53 °F (Jul 20, 3:56 AM)22% (Jul 23, 3:56 PM)29.72 "Hg (Jul 23, 3:56 PM)
Average78 °F57%29.95 "Hg
* Reported Jul 15 1:56 AM — Jul 30 1:56 AM, Lowell, Weather by CustomWeather, © 2016

Note: Actual official high and low records may vary slightly from our data, if they occured in-between our weather recording intervals... More about our weather records

Advertising

Lowell Weather History for the Previous 24 Hours

Scroll right to see more
 ConditionsComfort  
Time TempWeatherWind HumidityBarometerVisibility
1:56 AM
Sat, Jul 30
65 °FClear.No wind87%29.96 "Hg10 mi
12:56 AM66 °FClear.No wind87%29.94 "Hg10 mi
11:56 PM
Fri, Jul 29
68 °FClear.No wind87%29.94 "Hg10 mi
10:56 PM70 °FClear.No wind81%29.93 "Hg10 mi
9:56 PM74 °FPassing clouds.No wind71%29.93 "Hg10 mi
8:56 PM76 °FOvercast.5 mph67%29.92 "Hg10 mi
7:56 PM77 °FScattered clouds.5 mph62%29.90 "Hg10 mi
6:56 PM80 °FSunny.8 mph58%29.88 "Hg10 mi
5:56 PM82 °FPassing clouds.10 mph56%29.86 "Hg10 mi
4:56 PM83 °FScattered clouds.13 mph55%29.85 "Hg10 mi
3:56 PM84 °FBroken clouds.8 mph49%29.84 "Hg10 mi
2:56 PM86 °FScattered clouds.7 mph46%29.84 "Hg10 mi
1:56 PM84 °FScattered clouds.6 mph53%29.86 "Hg10 mi
12:56 PM79 °FScattered clouds.6 mph65%29.89 "Hg10 mi
11:56 AM77 °FSunny.6 mph71%29.90 "Hg10 mi
10:56 AM74 °FLight rain. Cloudy.3 mph79%29.91 "Hg10 mi
9:56 AM73 °FLight rain. Partly sunny.3 mph79%29.90 "Hg10 mi
8:56 AM73 °FLight rain. Broken clouds.9 mph81%29.89 "Hg10 mi
7:56 AM72 °FLight rain. Overcast.5 mph84%29.89 "Hg10 mi
6:56 AM72 °FLight rain. Scattered clouds.N/A81%29.88 "Hg10 mi
5:56 AM72 °FPassing clouds.3 mph81%29.88 "Hg10 mi
4:56 AM73 °FClear.5 mph79%29.86 "Hg10 mi
3:56 AM75 °FPassing clouds.3 mph74%29.86 "Hg10 mi
Weather by CustomWeather, © 2016

See weather overviewHow to use our weather pages